Location: B
(0.0000°N, 0.0000°E)
Time: 21:40:34
(UTC+01:00)

Amateur Radio Satellites - All Passes

Search period start: 31 October 2014 21:10
Search period end: 01 November 2014 21:10
Location: B, 0.0000°N, 0.0000°E

Satellite Date Start Highest point End Downlink Frequencies (MHz)
Time Altitude Azimuth
HO-68 31 Oct 21:11:11 21:18:00 48° 75° (ENE) 21:24:47 435.675 MHz FM
Oscar 11 31 Oct 21:23:32 21:24:23 11° 78° (ENE) 21:25:15 145.825 FM, Beacon 2401.500 USB
MaSat-1 31 Oct 21:59:31 22:02:28 18° 286° (WNW) 22:05:18 437.345 MHz
KITSAT 1 31 Oct 22:01:12 22:09:15 82° 250° (WSW) 22:17:21 435.175 FM
UKube-1 31 Oct 22:21:03 22:25:24 86° 78° (ENE) 22:29:45 145.840 MHz, 145.915 MHz
PANSAT 31 Oct 22:22:00 22:24:24 16° 152° (SSE) 22:26:47 not established
ZACube-1 31 Oct 22:30:17 22:34:32 36° 79° (ENE) 22:38:43 437.345 MHz
RS-15 31 Oct 22:30:20 22:33:43 12° 293° (WNW) 22:37:06 29.354 - 29.394 USB, Beacon 29.352 USB
SO-50 31 Oct 22:43:25 22:47:20 24° 248° (WSW) 22:51:14 436.795 FM
Oscar 11 31 Oct 22:56:29 23:00:18 30° 258° (WSW) 23:04:06 145.825 FM, Beacon 2401.500 USB
HO-68 31 Oct 23:00:47 23:05:21 18° 255° (WSW) 23:09:55 435.675 MHz FM
FUNcube-1 31 Oct 23:12:47 23:17:19 56° 258° (WSW) 23:21:48 145.950 - 145.970 MHz USB
UOSAT-12 31 Oct 23:25:50 23:30:20 58° 68° (ENE) 23:34:44 437.025 FM, 437.400 FM
PANSAT 01 Nov 00:00:40 00:04:32 77° 330° (NNW) 00:08:23 not established
ZACube-1 01 Nov 00:09:55 00:10:36 10° 258° (WSW) 00:11:18 437.345 MHz
PCSat 01 Nov 00:19:38 00:23:27 20° 110° (ESE) 00:27:14 145.825 MHz
Oscar 19 01 Nov 01:06:05 01:07:42 11° 103° (ESE) 01:09:20 437.125 CW, 437.150 USB
Sapphire 01 Nov 01:39:43 01:44:58 54° 289° (WNW) 01:50:13 437.095 MHz 1200 baud AX-25 AFSK
PANSAT 01 Nov 01:43:10 01:44:43 12° 332° (NNW) 01:46:15 not established
Oscar 16 01 Nov 01:49:50 01:54:42 45° 103° (ESE) 01:59:37 437.025 USB, Beacon 2401.1428
JAS-1B 01 Nov 01:49:52 01:58:17 56° 105° (ESE) 02:07:45 435.800 - 435.900 CW/SSB
PCSat 01 Nov 02:02:04 02:06:35 27° 289° (WNW) 02:11:05 145.825 MHz
AO-Echo 01 Nov 02:22:49 02:27:50 50° 102° (ESE) 02:32:44 ?
Uribyol 2 01 Nov 02:23:29 02:28:14 38° 103° (ESE) 02:32:58 436.500 FM
ITAMSAT 1 01 Nov 02:31:23 02:36:17 44° 103° (ESE) 02:41:11 435.822 SSB
Oscar 19 01 Nov 02:41:57 02:46:44 41° 282° (WNW) 02:51:34 437.125 CW, 437.150 USB
AO-27 01 Nov 03:18:59 03:23:57 47° 283° (WNW) 03:28:55 436.795 MHz FM
AO-7 01 Nov 03:30:26 03:34:46 15° 107° (ESE) 03:39:05 29.400 - 29.500 MHz
Oscar 16 01 Nov 03:33:45 03:33:47 10° 283° (WNW) 03:33:49 437.025 USB, Beacon 2401.1428
Gurwin Techsat 1B 01 Nov 03:36:03 03:41:18 69° 282° (WNW) 03:46:35 435.225 FM
Saudisat 1A 01 Nov 03:39:52 03:42:47 17° 112° (ESE) 03:45:40 436.775 MHz
TMSAT-1 01 Nov 03:42:10 03:47:27 85° 282° (WNW) 03:52:46 436.925 FM
JAS-1B 01 Nov 03:42:14 03:48:33 23° 282° (WNW) 03:55:27 435.800 - 435.900 CW/SSB
Uribyol 2 01 Nov 04:05:13 04:07:25 13° 283° (WNW) 04:09:37 436.500 FM
ITAMSAT 1 01 Nov 04:14:14 04:15:29 11° 283° (WNW) 04:16:44 435.822 SSB
Uosat F 01 Nov 04:15:47 04:19:14 19° 103° (ESE) 04:22:41 435.120 FM
OPAL 01 Nov 05:07:58 05:11:44 20° 76° (ENE) 05:15:27 ?
AO-7 01 Nov 05:18:51 05:27:05 67° 286° (WNW) 05:35:23 29.400 - 29.500 MHz
Saudisat 1A 01 Nov 05:18:52 05:22:05 20° 292° (WNW) 05:25:17 436.775 MHz
JAS-2 01 Nov 05:39:32 05:46:39 47° 102° (ESE) 05:53:05 435.800 - 435.900 CW/SSB, 435.910 FM
Uosat F 01 Nov 05:53:42 05:57:44 25° 283° (WNW) 06:01:48 435.120 FM
Hamsat 01 Nov 06:45:49 06:49:56 48° 281° (W) 06:54:06 145.90 MHz
OPAL 01 Nov 06:46:08 06:50:19 25° 255° (WSW) 06:54:29 ?
ISS 01 Nov 06:53:16 06:55:41 19° 126° (SE) 06:58:05 145.800 FM
STRAND 1 01 Nov 07:04:01 07:08:47 40° 77° (ENE) 07:13:32 ?
SO-67 01 Nov 07:16:10 07:19:05 26° 101° (E) 07:22:01 435.3500 MHz FM
JAS-2 01 Nov 07:26:05 07:31:09 20° 286° (WNW) 07:35:58 435.800 - 435.900 CW/SSB, 435.910 FM
RS-15 01 Nov 07:50:58 08:02:36 76° 70° (ENE) 08:14:43 29.354 - 29.394 USB, Beacon 29.352 USB
KITSAT 1 01 Nov 08:18:00 08:22:11 15° 111° (ESE) 08:26:21 435.175 FM
ISS 01 Nov 08:30:33 08:32:10 13° 306° (NW) 08:33:46 145.800 FM
STRAND 1 01 Nov 08:45:50 08:47:41 12° 257° (WSW) 08:49:31 ?
HO-68 01 Nov 09:02:58 09:09:33 40° 105° (ESE) 09:16:08 435.675 MHz FM
SO-50 01 Nov 09:16:21 09:20:12 30° 112° (ESE) 09:24:04 436.795 FM
Oscar 11 01 Nov 09:31:04 09:33:25 14° 102° (ESE) 09:35:47 145.825 FM, Beacon 2401.500 USB
MaSat-1 01 Nov 09:39:41 09:41:04 14° 251° (WSW) 09:42:29 437.345 MHz
RS-15 01 Nov 10:07:50 10:14:56 18° 246° (WSW) 10:22:14 29.354 - 29.394 USB, Beacon 29.352 USB
PANSAT 01 Nov 10:09:11 10:11:36 16° 28° (NNE) 10:14:00 not established
KITSAT 1 01 Nov 10:09:21 10:17:20 64° 290° (WNW) 10:25:17 435.175 FM
UKube-1 01 Nov 10:30:41 10:34:59 69° 282° (WNW) 10:39:19 145.840 MHz, 145.915 MHz
ZACube-1 01 Nov 10:41:04 10:45:03 48° 102° (ESE) 10:49:05 437.345 MHz
HO-68 01 Nov 10:51:41 10:56:55 22° 285° (WNW) 11:02:11 435.675 MHz FM
SO-50 01 Nov 10:59:05 11:00:30 11° 293° (WNW) 11:01:55 436.795 FM
Oscar 11 01 Nov 11:05:56 11:09:20 23° 282° (WNW) 11:12:44 145.825 FM, Beacon 2401.500 USB
FUNcube-1 01 Nov 11:23:53 11:27:42 37° 281° (WNW) 11:31:34 145.950 - 145.970 MHz USB
UOSAT-12 01 Nov 11:35:46 11:40:15 80° 292° (WNW) 11:44:49 437.025 FM, 437.400 FM
PANSAT 01 Nov 11:47:54 11:51:43 73° 210° (SSW) 11:55:32 not established
Sapphire 01 Nov 12:33:28 12:38:11 31° 71° (ENE) 12:42:53 437.095 MHz 1200 baud AX-25 AFSK
Oscar 10/S400 01 Nov 12:40:03 13:10:29 58° 332° (NNW) 13:29:43 145.825 - 145.975 CW/USB, Beacon 145.810 USB
PCSat 01 Nov 12:54:25 12:59:44 61° 71° (ENE) 13:05:02 145.825 MHz
PANSAT 01 Nov 13:30:34 13:31:54 11° 207° (SSW) 13:33:14 not established
Oscar 19 01 Nov 13:37:04 13:41:35 31° 78° (ENE) 13:46:03 437.125 CW, 437.150 USB
JAS-1B 01 Nov 14:03:46 14:10:17 59° 78° (ENE) 14:15:59 435.800 - 435.900 CW/SSB
AO-27 01 Nov 14:15:33 14:19:58 28° 77° (ENE) 14:24:23 436.795 MHz FM
Sapphire 01 Nov 14:17:51 14:21:20 17° 250° (WSW) 14:24:49 437.095 MHz 1200 baud AX-25 AFSK
Oscar 16 01 Nov 14:23:35 14:28:44 68° 258° (WSW) 14:33:51 437.025 USB, Beacon 2401.1428
Gurwin Techsat 1B 01 Nov 14:36:11 14:40:13 22° 77° (ENE) 14:44:14 435.225 FM
TMSAT-1 01 Nov 14:42:35 14:46:02 18° 77° (ENE) 14:49:28 436.925 FM
AO-Echo 01 Nov 14:51:55 14:56:42 71° 258° (WSW) 15:01:36 ?
Uribyol 2 01 Nov 14:57:59 15:03:12 80° 257° (WSW) 15:08:25 436.500 FM
ITAMSAT 1 01 Nov 15:06:13 15:11:24 69° 257° (WSW) 15:16:34 435.822 SSB
Oscar 19 01 Nov 15:17:33 15:20:38 16° 257° (WSW) 15:23:42 437.125 CW, 437.150 USB
Saudisat 1A 01 Nov 15:45:03 15:48:45 27° 68° (ENE) 15:52:28 436.775 MHz
AO-7 01 Nov 15:54:35 16:01:09 27° 74° (ENE) 16:07:41 29.400 - 29.500 MHz
AO-27 01 Nov 15:55:48 15:59:12 18° 257° (WSW) 16:02:36 436.795 MHz FM
Gurwin Techsat 1B 01 Nov 16:15:45 16:19:54 24° 257° (WSW) 16:24:04 435.225 FM
TMSAT-1 01 Nov 16:21:07 16:25:40 29° 257° (WSW) 16:30:12 436.925 FM
Uosat F 01 Nov 16:44:14 16:48:59 44° 77° (ENE) 16:53:43 435.120 FM
JAS-2 01 Nov 17:13:33 17:17:30 20° 75° (ENE) 17:21:43 435.800 - 435.900 CW/SSB, 435.910 FM
Saudisat 1A 01 Nov 17:25:56 17:28:04 13° 247° (WSW) 17:30:12 436.775 MHz
OPAL 01 Nov 17:38:29 17:43:14 47° 104° (ESE) 17:48:03 ?
AO-7 01 Nov 17:45:58 17:53:34 41° 254° (WSW) 18:01:10 29.400 - 29.500 MHz
Uosat F 01 Nov 18:27:12 18:27:28 10° 257° (WSW) 18:27:44 435.120 FM
ISS 01 Nov 18:29:31 18:31:03 13° 54° (NE) 18:32:35 145.800 FM
Hamsat 01 Nov 18:53:20 18:57:15 36° 258° (WSW) 19:01:06 145.90 MHz
JAS-2 01 Nov 18:57:29 19:02:15 30° 259° (W) 19:07:26 435.800 - 435.900 CW/SSB, 435.910 FM
SO-67 01 Nov 19:01:15 19:03:11 14° 79° (E) 19:05:06 435.3500 MHz FM
RS-15 01 Nov 19:34:23 19:45:43 65° 111° (ESE) 19:56:32 29.354 - 29.394 USB, Beacon 29.352 USB
STRAND 1 01 Nov 19:36:24 19:41:30 81° 283° (WNW) 19:46:37 ?
ISS 01 Nov 20:05:02 20:07:32 20° 234° (SW) 20:10:04 145.800 FM
KITSAT 1 01 Nov 20:24:38 20:30:12 20° 69° (ENE) 20:35:44 435.175 FM
SO-67 01 Nov 20:34:24 20:35:52 12° 259° (W) 20:37:20 435.3500 MHz FM
HO-68 01 Nov 20:54:53 21:01:09 33° 75° (ENE) 21:07:24 435.675 MHz FM
